ARIANE 44L+3 DEB, 48421

Orbit data source: Space-Track

ARIANE 44L+3 DEB, 48421 is space debris in HEO originally from a launch on Tue, 09 Jul 1996 UTC launched from the French Guiana (FRGUI). Debris objects in space refer to the collection of defunct objects orbiting the Earth. Examples of debris include non-operational satellites, rocket bodies, and fragments generated from explosions, collisions, or faulty payload assembly.

Loading next visibility...
Identifier
48421, 1996-040E
Orbit
HEO
Country
Flag of FRFR
Related business
Manufacturer
ArianeGroup
Mission
Spacecraft
Bus & Motor
Unknown
Mass
Unknown
Launch date (UTC)
1996-07-09 (29 years ago)
Launch vehicle
Unknown
Launch site
French Guiana (FRGUI)
Object type
Payload
Rocket body
Debris
Shape & HBR
Unknown
Radar Cross Section
Medium (>0.1 m² and <1 m²)

Expand to show TLE details & history
Last TLE update: 1 year ago

TLE from 1 year ago
0 ARIANE 44L+3 DEB
1 48421U 96040E   24138.94035614  .00002190  00000-0  81776-2 0  9991
2 48421   6.3899 241.6302 6951932  58.0411 351.2228  2.58292292 86297
Epoch: 2024-05-17T22:34Z
TLE epoch observation values (Epoch: 2024-05-17T22:34:06.77Z)
Latitude
0.00033°
Longitude
27.1939°
Altitude
2,094.829 km
Speed
8.736 km/s
True Right ascension
16h 07m 20s
True Declination
0° 00' 01"
Sunlit
Object was in full shadow at epoch
Visualization orbit readout
Latitude
Unknown
Longitude
Unknown
Altitude
Unknown
Speed
Unknown
Apparent Right ascension
Unknown
Apparent Declination
Unknown
Sunlit
N/A
Visualization observer readout
Local Sidereal Time
19:55:07
Azimuth
Unknown
Elevation
Unknown
Doppler factor
Unknown
Orbital elements
Apogee altitude
31,668.306 km
Perigee altitude
462.862 km
Semi-major axis
22,443.721 km
Eccentricity
0.69519
Inclination
6.3899°
RAAN
241.6302°
Arg. of periapsis
58.0411°
True anomaly
301.66164°
Mean anomaly
351.2228°
Eccentric anomaly
333.36783°
Mean motion
0.64551 °/min
Orbital period
557.7 mins
BSTAR
0.0081776
Loading maneuver chart data...
Computing Atmospheric mass density...
Loading historical data...
Loading historical data...
Loading historical data...
Loading historical data...
Loading historical data...
Loading historical data...
Loading historical data...
Other satellites on launch #40 in the year 1996 (1996-07-09 UTC)

Documentation

Showing up to 5 results
|